Weather History for Kansas City, MO

Change the Weather History Date:

Sunday, December 9, 2012

  Actual Average Record
Temperature  
Mean Temperature 34 °F -  
Max Temperature 44 °F 43 °F 59 °F (2008)
Min Temperature 21 °F 27 °F 1 °F (2005)
Degree Days  
Heating Degree Days 32    
Moisture  
Dew Point 29 °F    
Average Humidity 77    
Maximum Humidity 100    
Minimum Humidity 51    
Precipitation  
Precipitation 0.01 in - - ()
Sea Level Pressure  
Sea Level Pressure 29.93 in    
Wind  
Wind Speed 6 mph (NW)    
Max Wind Speed 15 mph    
Max Gust Speed 26 mph    
Visibility 6 miles    
Events Rain    
Averages and records for this station are not official NWS values.
T = Trace of Precipitation, MM = Missing Value Source: NWS Daily Summary

Daily Weather History Graph

Daily Weather History Graph

Search for Another Location

Airport:

Trip Planner

Search our weather history database for the weather conditions in past years. The results will help you decide how hot, cold, wet, or windy it might be!

Date:

Astronomy

Dec. 09, 2012 Rise Set
Actual Time 7:26 AM CST 4:55 PM CST
Civil Twilight 6:56 AM CST 5:25 PM CST
Nautical Twilight 6:22 AM CST 5:59 PM CST
Astronomical Twilight 5:50 AM CST 6:31 PM CST
Moon 3:01 AM CST (12/9) 2:01 PM CST (12/9)
Length of Visible Light 10h 29m
Length of Day
9h 29m
Waning Crescent, 18% of the Moon is Illuminated
Dec 9
Waning Crescent
Dec 13
New
Dec 19
First Quarter
Dec 28
Full
Jan 4
Last Quarter

Hourly Weather History & Observations

Time (CST) Temp. Windchill Dew Point Humidity Pressure Visibility Wind Dir Wind Speed Gust Speed Precip Events Conditions
12:54 AM 39.9 °F 35.8 °F 37.0 °F 89% 29.87 in 5.0 mi East 5.8 mph - N/A   Overcast
1:54 AM 41.0 °F 38.0 °F 37.9 °F 89% 29.86 in 5.0 mi East 4.6 mph - N/A   Overcast
2:54 AM 41.0 °F - 37.9 °F 89% 29.86 in 4.0 mi Calm Calm - N/A   Overcast
3:29 AM 41.0 °F 39.0 °F 37.4 °F 87% 29.84 in 3.0 mi NNE 3.5 mph - N/A   Overcast
3:54 AM 39.9 °F 36.7 °F 37.9 °F 93% 29.84 in 3.0 mi NNE 4.6 mph - N/A   Overcast
4:07 AM 39.2 °F 37.0 °F 37.4 °F 93% 29.83 in 2.5 mi NNE 3.5 mph - N/A   Overcast
4:54 AM 39.9 °F 37.8 °F 39.0 °F 97% 29.85 in 2.0 mi NNE 3.5 mph - N/A   Overcast
5:15 AM 39.2 °F 37.0 °F 37.4 °F 93% 29.84 in 1.8 mi NNE 3.5 mph - N/A   Overcast
5:24 AM 39.2 °F - 39.2 °F 100% 29.84 in 2.0 mi Calm Calm - N/A   Overcast
5:54 AM 39.9 °F - 39.0 °F 97% 29.86 in 1.8 mi Calm Calm - N/A   Overcast
6:54 AM 39.9 °F 34.5 °F 39.0 °F 97% 29.87 in 1.8 mi NW 8.1 mph - 0.00 in Rain Light Rain
7:13 AM 39.2 °F 35.0 °F 39.2 °F 100% 29.86 in 2.0 mi North 5.8 mph - 0.01 in   Overcast
7:37 AM 39.2 °F 35.9 °F 39.2 °F 100% 29.88 in 3.0 mi NW 4.6 mph - 0.01 in   Overcast
7:54 AM 39.9 °F - 39.0 °F 97% 29.89 in 4.0 mi Calm Calm - 0.01 in   Overcast
8:05 AM 41.0 °F 38.0 °F 39.2 °F 93% 29.87 in 3.0 mi NW 4.6 mph - N/A   Overcast
8:54 AM 41.0 °F 37.1 °F 37.9 °F 89% 29.90 in 4.0 mi WNW 5.8 mph - N/A   Overcast
9:04 AM 41.0 °F 37.1 °F 37.4 °F 87% 29.89 in 5.0 mi WNW 5.8 mph - N/A   Overcast
9:54 AM 43.0 °F 38.8 °F 39.0 °F 86% 29.91 in 5.0 mi WNW 6.9 mph - N/A   Overcast
10:54 AM 43.0 °F 39.5 °F 39.0 °F 86% 29.92 in 4.0 mi WNW 5.8 mph - N/A   Overcast
11:43 AM 44.6 °F 40.2 °F 37.4 °F 76% 29.89 in 6.0 mi NNW 8.1 mph - N/A   Haze
11:54 AM 44.1 °F 38.6 °F 37.0 °F 76% 29.90 in 6.0 mi NNW 10.4 mph 17.3 mph N/A   Haze
12:54 PM 42.1 °F 35.2 °F 33.1 °F 70% 29.93 in 10.0 mi NW 12.7 mph - N/A   Overcast
1:54 PM 43.0 °F 37.2 °F 30.9 °F 62% 29.92 in 10.0 mi NW 10.4 mph - N/A   Mostly Cloudy
2:11 PM 42.8 °F 35.8 °F 28.4 °F 57% 29.91 in 10.0 mi NW 13.8 mph 21.9 mph N/A   Scattered Clouds
2:54 PM 42.1 °F 34.5 °F 26.1 °F 53% 29.93 in 10.0 mi NW 15.0 mph 23.0 mph N/A   Clear
3:54 PM 36.0 °F 26.7 °F 19.9 °F 52% 29.97 in 10.0 mi WNW 15.0 mph 23.0 mph N/A   Clear
4:54 PM 32.0 °F 22.5 °F 16.0 °F 52% 30.01 in 10.0 mi NW 12.7 mph 21.9 mph N/A   Clear
5:54 PM 28.9 °F 20.4 °F 12.9 °F 51% 30.04 in 10.0 mi NW 9.2 mph 20.7 mph N/A   Clear
6:54 PM 28.9 °F 17.7 °F 12.9 °F 51% 30.06 in 10.0 mi WNW 15.0 mph 23.0 mph N/A   Clear
7:54 PM 27.0 °F 15.2 °F 12.9 °F 56% 30.07 in 10.0 mi NW 15.0 mph 24.2 mph N/A   Partly Cloudy
8:07 PM 26.6 °F 14.7 °F 12.2 °F 55% 30.05 in 10.0 mi WNW 15.0 mph 19.6 mph N/A   Mostly Cloudy
8:41 PM 26.6 °F 15.2 °F 12.2 °F 55% 30.06 in 9.0 mi NW 13.8 mph 26.5 mph 0.00 in   Mostly Cloudy
8:54 PM 25.0 °F 13.1 °F 10.9 °F 55% 30.08 in 10.0 mi WNW 13.8 mph 21.9 mph 0.00 in   Mostly Cloudy
9:54 PM 24.1 °F 12.0 °F 10.0 °F 55% 30.09 in 10.0 mi NW 13.8 mph 23.0 mph N/A   Scattered Clouds
10:54 PM 23.0 °F 13.1 °F 10.0 °F 58% 30.10 in 10.0 mi NW 9.2 mph 20.7 mph N/A   Clear
11:54 PM 21.9 °F 10.4 °F 10.0 °F 60% 30.10 in 10.0 mi NW 11.5 mph 19.6 mph N/A   Scattered Clouds